Location: Gälforsberget
(66.6500°N, 22.4167°E)
Time: 18:35:42
(UTC+00:00)

Geosat - Pass Details

Date: 11 April 2026
Orbit: 758 x 760 km, 108.0° (Epoch: 19 May)

Event Time Altitude Azimuth Distance (km) Brightness Sun altitude
Rises 21:20:10 0° 56° (NE) 3,232 7.4 -13.7°
Reaches altitude 10° 21:22:28 10° 54° (NE) 2,304 6.7 -13.7°
Maximum altitude 21:27:26 67° 333° (NNW) 832 4.4 -13.9°
Drops below altitude 10° 21:32:24 10° 252° (WSW) 2,299 6.4 -14.0°
Sets 21:34:41 0° 250° (WSW) 3,223 7.2 -14.1°
